Wind_Speed
4 4 5 4 4 5 5 4 4 4 4 4 5 6 7 7 7 7 7 7 6 6 6 6 5 4 4 4 5 5 5 5 5 4 4 4 4 5 5 4 3 3 3 2
4 5 5 5 4 4 5 5 4 4 4 4 5 6 7 7 7 7 7 6 6 6 6 6 5 5 5 5 5 5 5 5 5 5 5 5 4 4 5 5 4 4 4 3
5 5 5 5 5 5 5 5 4 4 4 4 5 5 7 7 7 6 6 6 6 6 6 6 5 5 5 5 5 5 5 5 5 6 5 5 5 4 5 5 5 5 5 4
5 5 5 5 5 5 5 5 4 3 3 4 5 5 6 7 6 6 6 6 6 6 6 5 5 6 6 6 6 6 5 5 5 5 4 5 5 5 5 5 5 5 5 4
6 6 5 5 5 5 6 5 5 4 4 5 6 6 6 7 6 6 6 7 6 6 6 6 6 6 6 6 6 6 5 5 5 5 4 4 5 4 5 4 4 4 4 4
7 6 6 6 6 6 6 5 5 5 5 5 6 6 6 7 7 6 7 7 6 6 6 6 6 6 6 6 6 5 5 5 5 5 5 5 5 5 5 4 4 4 4 5
7 7 7 7 7 6 6 6 6 6 6 6 6 7 7 8 7 7 7 7 6 6 6 6 7 7 6 6 6 6 6 5 6 6 5 5 5 5 5 4 4 4 4 4
9 8 8 7 7 7 7 6 7 7 7 8 8 8 8 8 8 8 8 7 7 7 7 7 7 7 7 7 6 6 6 6 6 6 5 5 5 5 5 5 4 5 5 5
9 9 9 8 8 8 8 7 8 8 8 9 9 9 8 8 8 8 8 8 8 7 7 8 8 8 7 7 7 7 6 6 6 6 5 5 5 5 5 5 5 5 5 5
10 11 10 10 10 9 9 9 9 8 9 9 9 9 9 8 8 8 8 8 7 7 7 8 8 8 8 7 8 7 7 6 6 6 6 6 6 5 5 5 5 5 5 5
11 11 12 12 11 11 10 10 10 10 10 9 9 9 9 9 9 8 8 8 8 8 8 8 8 8 8 8 8 8 7 6 6 6 7 7 6 6 6 6 6 5 5 5
12 12 13 13 12 12 11 11 11 10 10 10 10 10 9 9 9 9 9 9 9 9 9 9 8 9 9 9 9 8 7 7 7 7 7 7 7 7 7 6 6 6 6 5
13 13 13 13 13 12 12 11 11 11 11 11 11 11 10 9 10 10 9 9 10 10 10 9 9 10 10 9 9 9 9 9 9 8 9 9 8 8 7 7 7 7 7 7
14 14 14 14 14 13 12 12 12 12 12 12 12 12 11 10 10 10 11 10 10 10 10 11 10 10 11 11 11 10 10 10 10 10 10 10 10 9 9 9 8 8 8 8
16 15 15 15 14 14 13 13 13 13 13 13 13 14 13 11 11 11 11 11 11 10 11 11 11 11 11 11 12 11 11 11 11 10 10 11 11 11 10 10 10 9 9 8
17 17 17 16 16 16 15 15 14 14 14 15 15 14 13 12 12 12 13 12 12 12 11 11 11 12 12 12 12 13 12 12 12 11 11 12 12 11 11 11 11 11 11 10
18 18 18 18 18 18 17 15 16 15 16 16 16 15 14 13 13 13 14 14 14 13 13 12 12 12 12 12 13 14 14 13 12 12 12 12 12 12 12 12 12 12 12 12
19 19 19 19 20 20 18 17 16 16 16 17 17 16 15 14 14 14 14 14 14 14 14 14 14 13 14 14 14 14 14 14 13 13 13 13 13 13 13 12 13 13 13 13
21 21 21 21 21 21 19 18 17 16 16 16 17 17 17 16 15 15 15 15 15 15 15 15 15 15 15 15 15 16 16 15 14 14 14 14 14 14 14 14 14 14 14 14
22 22 22 22 22 22 20 19 18 17 17 17 17 17 17 17 17 16 16 16 15 15 16 16 16 16 16 17 17 17 17 16 16 15 16 15 15 16 16 16 16 15 15 16
22 23 23 23 23 23 21 19 19 18 18 18 18 18 18 18 18 17 17 17 16 17 17 18 18 17 17 17 18 18 18 18 18 17 17 17 17 17 17 18 17 17 17 17
24 24 23 23 24 23 21 21 20 20 19 20 20 19 19 19 18 18 18 18 18 18 18 19 19 19 19 19 19 19 18 18 19 18 18 18 18 18 18 19 19 18 18 18
26 25 24 24 24 23 22 22 21 21 21 21 20 20 19 20 20 20 19 19 20 20 20 20 21 20 20 20 20 19 19 19 20 20 20 20 20 20 20 19 20 19 19 19
27 27 27 26 25 25 24 24 23 22 22 22 22 21 21 21 21 21 21 22 22 22 21 21 22 22 21 21 20 20 20 20 20 21 21 21 22 21 21 21 20 19 19 19
29 28 28 27 26 26 26 26 25 24 23 23 23 22 22 22 22 23 23 23 23 23 23 23 23 23 23 22 22 22 21 21 21 21 21 21 22 22 22 21 20 20 19 20
29 28 28 27 26 26 26 27 26 25 24 24 24 23 23 23 23 23 23 23 23 23 23 23 24 24 24 23 23 23 23 22 22 22 23 23 23 23 23 22 22 22 22 22
Wind_Direction
291 299 306 310 313 318 320 315 313 311 312 317 319 319 321 323 319 313 305 295 290 285 284 285 289 293 295 297 298 294 289 280 270 261 261 267 261 252 246 250 246 251 261 265
290 290 298 299 304 314 318 310 310 313 319 319 318 319 318 319 318 314 311 305 298 293 296 287 279 281 296 294 291 288 285 277 272 265 260 256 265 257 245 245 251 254 257 255
283 288 294 295 301 310 315 308 305 311 319 321 321 320 317 319 317 315 311 309 305 302 294 290 281 280 287 292 291 288 287 273 269 273 263 250 258 263 254 250 252 252 250 251
278 289 293 291 299 308 308 307 303 310 311 316 317 316 313 317 316 312 309 309 308 300 290 284 277 277 281 285 287 290 286 274 271 273 260 251 254 258 256 256 253 248 245 246
277 282 284 285 292 297 300 303 302 302 305 310 314 313 311 312 311 308 306 306 304 298 290 283 275 275 279 283 282 285 281 274 275 270 255 255 253 253 254 253 249 244 240 244
271 275 278 278 284 291 298 299 302 301 305 309 310 311 309 305 304 304 303 303 299 296 291 288 279 277 280 280 277 279 278 277 276 271 260 263 255 251 249 248 244 242 243 246
270 271 274 278 280 282 289 293 296 298 298 305 309 310 307 302 302 301 301 300 294 292 287 283 279 278 279 278 278 280 275 276 274 268 263 263 253 252 250 252 252 249 248 244
272 270 271 275 277 275 279 281 280 285 290 297 305 307 304 302 302 300 299 296 287 285 283 280 280 277 276 275 271 276 271 272 268 264 262 256 251 252 253 254 256 257 254 249
267 266 267 270 273 273 274 274 280 284 290 293 297 303 302 302 302 301 300 297 289 284 284 283 280 278 277 272 266 269 270 268 261 261 263 259 258 256 257 252 252 259 259 253
262 263 265 266 269 269 272 275 277 283 289 293 297 298 302 305 302 300 299 296 289 287 285 285 282 278 274 270 267 266 266 270 268 261 256 257 261 262 260 256 255 256 253 248
260 262 264 263 266 269 270 271 276 281 284 286 288 293 299 302 302 299 295 293 289 285 284 286 282 277 273 269 268 266 262 261 266 262 258 257 260 261 261 259 258 254 249 244
257 260 262 264 264 265 266 269 272 275 280 283 286 288 294 298 301 297 292 289 288 286 283 284 282 277 271 270 270 267 264 263 265 261 254 256 261 262 261 262 258 252 249 248
257 259 261 263 263 262 264 267 270 271 276 281 285 287 289 291 294 296 294 290 291 291 286 284 282 278 272 269 266 265 266 264 263 260 253 254 258 264 265 263 258 253 251 253
256 257 258 260 263 263 265 266 268 268 273 278 280 283 285 288 288 288 291 292 291 287 286 287 286 280 272 266 264 261 265 267 264 260 255 255 255 260 264 264 261 259 259 259
253 254 255 256 260 262 264 268 269 268 271 274 277 279 283 285 283 281 285 289 292 288 282 282 284 281 276 269 264 263 266 266 264 261 257 255 255 257 262 263 261 262 265 262
253 255 256 258 260 262 263 266 268 269 271 272 275 277 281 282 283 283 283 286 287 287 287 286 285 283 276 270 268 266 266 266 263 261 259 259 257 257 259 263 262 264 265 265
253 255 256 258 258 260 262 265 268 269 271 272 273 276 277 280 282 284 284 283 283 283 284 284 283 282 280 273 270 266 267 265 263 259 260 261 258 256 259 262 261 264 267 267
255 256 257 259 259 259 262 264 267 269 271 271 272 274 275 279 279 280 279 280 282 282 282 282 279 279 277 273 270 268 268 268 264 259 259 261 258 257 260 265 264 266 268 270
256 256 259 260 260 260 260 263 267 270 271 272 273 273 273 276 277 277 278 279 282 280 279 280 280 281 279 275 272 268 269 266 264 261 261 260 258 258 259 264 267 267 269 271
253 254 256 259 261 262 261 262 265 268 269 271 273 273 272 274 274 276 279 278 277 276 277 279 279 279 279 277 274 271 267 264 263 262 260 261 261 259 261 263 266 269 272 274
251 252 254 257 260 262 262 262 264 267 270 271 273 273 272 273 274 276 276 274 275 275 276 278 280 278 279 277 274 272 268 265 264 264 262 262 262 262 264 265 267 269 271 274
252 253 254 257 260 262 262 262 262 265 268 271 272 273 273 273 273 274 274 274 274 277 278 277 278 278 278 276 274 270 264 263 264 264 262 261 263 264 265 267 269 270 271 273
254 254 255 257 260 262 262 262 262 265 267 269 270 271 272 271 272 272 273 273 275 277 277 277 277 277 276 275 273 270 264 261 263 264 264 263 264 266 266 267 268 268 270 273
255 256 256 257 259 260 262 261 262 265 266 268 269 269 270 271 271 271 272 272 274 276 277 277 276 276 276 273 270 267 263 261 261 262 264 265 264 264 265 266 267 268 270 273
254 256 258 259 260 261 262 261 262 263 265 267 266 268 269 270 270 271 272 272 273 274 276 276 276 276 275 272 269 265 262 262 261 262 264 265 265 263 265 266 266 266 268 271
252 255 257 258 259 259 260 261 262 262 262 263 264 267 269 270 270 270 271 271 272 274 276 276 276 275 273 270 267 265 264 263 261 261 264 265 265 264 265 265 266 267 268 270
Height
5888 5889 5888 5888 5887 5887 5887 5886 5885 5885 5884 5884 5882 5881 5880 5879 5878 5877 5877 5876 5875 5874 5874 5873 5873 5872 5872 5871 5871 5871 5870 5870 5870 5869 5869 5869 5868 5868 5868 5868 5868 5868 5868 5867
5888 5888 5887 5886 5886 5886 5885 5885 5884 5883 5883 5882 5881 5880 5879 5878 5877 5876 5875 5874 5874 5873 5873 5872 5872 5871 5871 5870 5870 5870 5869 5869 5869 5868 5868 5868 5868 5867 5867 5867 5867 5867 5867 5867
5886 5887 5885 5885 5885 5884 5884 5883 5882 5882 5882 5881 5881 5880 5878 5877 5876 5875 5874 5874 5873 5872 5872 5871 5871 5870 5870 5870 5869 5869 5868 5868 5868 5867 5867 5867 5867 5866 5866 5866 5866 5866 5866 5866
5884 5884 5884 5884 5883 5883 5882 5882 5881 5881 5880 5880 5880 5879 5878 5876 5875 5874 5873 5872 5872 5871 5870 5870 5870 5869 5869 5869 5868 5868 5867 5867 5867 5866 5866 5866 5866 5866 5865 5865 5865 5865 5865 5865
5883 5882 5882 5882 5882 5881 5881 5880 5880 5880 5879 5879 5878 5878 5877 5875 5874 5873 5872 5871 5870 5870 5869 5868 5868 5868 5868 5867 5867 5866 5866 5866 5866 5865 5865 5865 5865 5864 5864 5864 5864 5864 5863 5863
5881 5880 5880 5880 5880 5880 5879 5879 5879 5878 5878 5878 5877 5877 5875 5873 5872 5871 5870 5869 5868 5868 5867 5867 5866 5866 5866 5866 5865 5865 5865 5864 5864 5864 5863 5863 5863 5863 5863 5863 5863 5863 5862 5862
5878 5878 5878 5878 5878 5878 5878 5878 5878 5878 5877 5877 5876 5874 5874 5871 5870 5869 5868 5867 5866 5866 5865 5865 5865 5864 5864 5864 5864 5864 5863 5863 5863 5863 5862 5862 5862 5862 5862 5861 5861 5861 5861 5861
5876 5876 5876 5876 5876 5876 5876 5877 5877 5877 5876 5875 5874 5872 5872 5870 5868 5867 5866 5865 5864 5864 5863 5863 5863 5862 5862 5862 5862 5862 5862 5861 5861 5861 5861 5861 5861 5861 5861 5860 5860 5860 5860 5860
5873 5874 5873 5873 5873 5874 5873 5874 5874 5874 5873 5873 5872 5871 5870 5867 5866 5865 5864 5863 5862 5862 5861 5861 5861 5860 5860 5860 5860 5860 5860 5860 5859 5860 5860 5860 5860 5860 5859 5859 5859 5859 5859 5859
5870 5871 5871 5870 5871 5871 5871 5871 5871 5871 5871 5870 5870 5868 5868 5865 5864 5863 5862 5860 5860 5859 5859 5859 5858 5858 5858 5858 5858 5858 5858 5858 5858 5858 5858 5858 5858 5858 5858 5858 5857 5857 5857 5857
5867 5867 5868 5868 5868 5868 5868 5868 5868 5868 5868 5868 5867 5868 5865 5864 5862 5861 5860 5858 5858 5857 5856 5856 5856 5856 5856 5856 5856 5856 5856 5856 5856 5856 5856 5856 5856 5856 5856 5856 5856 5856 5856 5856
5863 5864 5864 5864 5864 5864 5864 5865 5865 5865 5865 5864 5864 5866 5862 5861 5860 5858 5857 5856 5855 5855 5854 5854 5853 5853 5853 5853 5853 5853 5853 5854 5854 5854 5854 5854 5855 5855 5855 5854 5854 5854 5854 5854
5859 5860 5860 5861 5862 5861 5861 5861 5861 5862 5862 5861 5861 5863 5859 5858 5857 5856 5855 5854 5853 5852 5852 5851 5851 5850 5850 5851 5851 5851 5851 5851 5851 5851 5852 5852 5852 5853 5853 5853 5853 5852 5852 5852
5854 5855 5857 5858 5857 5857 5857 5858 5857 5858 5858 5858 5858 5857 5856 5855 5854 5853 5852 5851 5851 5850 5849 5849 5848 5848 5847 5848 5848 5848 5848 5848 5848 5849 5849 5849 5850 5850 5850 5850 5850 5850 5850 5850
5850 5851 5851 5852 5852 5853 5853 5854 5853 5853 5854 5854 5854 5853 5852 5852 5851 5850 5849 5849 5848 5847 5847 5846 5845 5845 5844 5844 5844 5845 5845 5845 5845 5846 5846 5846 5847 5847 5847 5847 5848 5848 5848 5848
5845 5846 5847 5848 5848 5848 5848 5849 5849 5849 5849 5849 5849 5849 5848 5848 5847 5847 5846 5846 5845 5844 5844 5843 5842 5842 5841 5841 5841 5841 5841 5842 5842 5842 5843 5843 5843 5844 5844 5844 5845 5845 5845 5845
5840 5841 5842 5842 5843 5843 5844 5845 5845 5845 5845 5845 5845 5846 5844 5844 5843 5843 5842 5842 5841 5841 5841 5840 5839 5838 5838 5838 5838 5838 5838 5838 5838 5839 5839 5840 5840 5841 5841 5841 5841 5842 5842 5841
5834 5835 5835 5836 5838 5837 5841 5840 5840 5840 5840 5840 5840 5840 5840 5840 5839 5839 5838 5838 5837 5837 5837 5836 5835 5835 5834 5834 5834 5834 5834 5834 5834 5835 5836 5836 5836 5837 5837 5838 5838 5838 5838 5838
5828 5829 5829 5830 5830 5831 5834 5834 5834 5834 5835 5835 5835 5835 5835 5834 5834 5834 5833 5833 5833 5833 5832 5832 5831 5831 5831 5830 5830 5830 5830 5830 5830 5831 5832 5832 5832 5833 5833 5834 5834 5834 5834 5833
5821 5822 5823 5823 5824 5825 5829 5829 5828 5829 5829 5830 5829 5829 5829 5829 5829 5830 5829 5828 5828 5828 5828 5827 5827 5826 5826 5826 5825 5825 5825 5825 5826 5826 5827 5827 5828 5828 5829 5829 5829 5829 5829 5829
5814 5815 5816 5816 5817 5818 5821 5822 5823 5825 5825 5824 5823 5824 5824 5824 5824 5824 5823 5823 5823 5823 5823 5822 5822 5821 5821 5820 5820 5820 5820 5820 5821 5821 5822 5822 5823 5823 5824 5824 5824 5824 5824 5824
5808 5809 5810 5810 5811 5814 5814 5815 5817 5818 5817 5817 5817 5817 5818 5818 5818 5818 5818 5818 5817 5817 5817 5817 5816 5816 5815 5815 5814 5814 5815 5815 5815 5816 5816 5817 5817 5818 5818 5818 5818 5818 5818 5818
5800 5802 5803 5805 5807 5807 5807 5808 5809 5810 5810 5810 5811 5811 5811 5811 5811 5812 5811 5811 5811 5811 5811 5810 5810 5810 5809 5808 5808 5808 5808 5809 5809 5810 5810 5811 5811 5812 5812 5812 5812 5812 5812 5812
5793 5794 5795 5796 5798 5799 5800 5800 5801 5802 5803 5803 5804 5804 5804 5805 5805 5805 5805 5805 5805 5804 5804 5804 5803 5803 5802 5802 5802 5802 5802 5802 5803 5803 5804 5804 5805 5805 5806 5806 5806 5806 5806 5806
5785 5786 5787 5788 5790 5791 5792 5793 5794 5794 5795 5796 5796 5797 5797 5797 5797 5797 5797 5797 5797 5797 5796 5796 5796 5795 5795 5795 5795 5795 5795 5795 5796 5796 5797 5797 5798 5799 5799 5799 5799 5800 5800 5800
5776 5778 5779 5781 5782 5783 5784 5785 5786 5787 5787 5788 5788 5789 5789 5789 5789 5789 5789 5789 5789 5789 5789 5788 5788 5787 5787 5787 5787 5787 5787 5788 5788 5789 5790 5790 5791 5791 5792 5792 5793 5793 5793 5793